GW2693 Weather Reports


Display with metric or nautical units.
time (UTC)temp
F
wind
direction
speed
MPH
gust
MPH
rain 1hr
in
rain 24hr
in
rain mn
in
humidity
%
barometer
mb
20260506051157 74 150 2.0 2.0 0.00 0.00 0.00 98 1005.9
20260506050655 74 176 2.0 2.0 0.00 0.00 0.00 98 1006.0
20260506050152 75 150 2.0 2.0 0.00 0.00 0.00 98 1005.8
20260506044643 75 185 2.0 3.0 0.00 0.00 0.00 97 1005.9
20260506044140 75 223 3.0 6.0 0.00 0.00 0.00 97 1006.0
20260506043637 75 191 2.0 2.0 0.00 0.00 0.00 97 1005.7
20260506043135 75 183 2.0 3.0 0.00 0.00 0.00 97 1005.9
20260506042634 75 157 2.0 3.0 0.00 0.00 0.00 97 1005.8
20260506042131 75 179 2.0 3.0 0.00 0.00 0.00 97 1006.0
20260506041630 75 199 2.0 2.0 0.00 0.00 0.00 96 1005.9
20260506041126 75 152 3.0 4.0 0.00 0.00 0.00 96 1005.8
20260506040624 75 153 2.0 3.0 0.00 0.00 0.00 96 1005.8
20260506040120 75 177 5.0 7.0 0.00 0.00 0.00 96 1005.6
20260506035617 75 157 2.0 2.0 0.00 0.00 0.00 96 1005.4
20260506035114 75 203 4.0 7.0 0.00 0.00 0.00 96 1005.3
20260506034611 75 198 2.0 2.0 0.00 0.00 0.00 96 1005.4
20260506034108 75 182 4.0 6.0 0.00 0.00 0.00 96 1005.0
20260506033605 76 180 3.0 4.0 0.00 0.00 0.00 95 1005.1
20260506033102 76 167 2.0 2.0 0.00 0.00 0.00 95 1005.1
20260506032600 76 161 6.0 8.0 0.00 0.00 0.00 95 1005.0
20260506032056 76 206 4.0 6.0 0.00 0.00 0.00 95 1004.8
20260506031554 76 213 5.0 8.0 0.00 0.00 0.00 94 1005.0
20260506031050 76 201 4.0 4.0 0.00 0.00 0.00 94 1004.8
20260506030549 76 199 3.0 3.0 0.00 0.00 0.00 94 1004.7
20260506030046 76 186 3.0 6.0 0.00 0.00 0.00 93 1004.6
20260506025542 76 207 6.0 8.0 0.00 0.00 0.00 93 1004.5
20260506025038 77 202 4.0 4.0 0.00 0.00 0.00 93 1004.7
20260506024535 77 213 3.0 4.0 0.00 0.00 0.00 92 1004.5
20260506024031 77 160 4.0 6.0 0.00 0.00 0.00 92 1004.6
20260506023522 77 218 4.0 7.0 0.00 0.00 0.00 92 1004.5
20260506023020 77 164 5.0 7.0 0.00 0.00 0.00 91 1004.6
20260506022517 77 164 3.0 4.0 0.00 0.00 0.00 91 1004.6
20260506022015 78 112 3.0 4.0 0.00 0.00 0.00 91 1004.4
20260506021512 78 234 2.0 3.0 0.00 0.00 0.00 91 1004.5
20260506021009 78 219 5.0 8.0 0.00 0.00 0.00 90 1004.4
20260506020507 78 230 2.0 2.0 0.00 0.00 0.00 90 1004.6
20260506020004 78 213 2.0 3.0 0.00 0.00 0.00 90 1004.5
20260506015501 78 147 1.0 2.0 0.00 0.00 0.00 90 1004.2
20260506014958 78 239 2.0 3.0 0.00 0.00 0.00 90 1004.4
20260506014455 78 154 2.0 2.0 0.00 0.00 0.00 90 1004.2
20260506013951 78 192 2.0 3.0 0.00 0.00 0.00 89 1004.3
20260506013450 78 169 2.0 4.0 0.00 0.00 0.00 89 1003.8
20260506012945 79 186 2.0 2.0 0.00 0.00 0.00 89 1004.0
20260506012442 79 172 1.0 1.0 0.00 0.00 0.00 88 1004.0
20260506011939 79 185 2.0 2.0 0.00 0.00 0.00 88 1003.9
20260506011436 79 220 2.0 3.0 0.00 0.00 0.00 88 1003.8
20260506010933 79 198 3.0 3.0 0.00 0.00 0.00 87 1003.5
20260506010432 80 184 2.0 3.0 0.00 0.00 0.00 87 1003.7
20260506005928 80 166 1.0 2.0 0.00 0.00 0.00 86 1003.6
20260506005426 80 183 1.0 1.0 0.00 0.00 0.00 86 1003.4
20260506004921 80 179 5.0 7.0 0.00 0.00 0.00 85 1003.6
20260506004419 80 230 2.0 3.0 0.00 0.00 0.00 85 1003.3
20260506003915 81 207 2.0 3.0 0.00 0.00 0.00 85 1003.3
20260506003411 81 169 1.0 2.0 0.00 0.00 0.00 84 1003.2
20260506002908 81 186 1.0 2.0 0.00 0.00 0.00 84 1003.0
20260506002404 82 152 0.0 0.0 0.00 0.00 0.00 83 1003.3
20260506001859 82 204 2.0 2.0 0.00 0.00 0.00 83 1003.1
20260506001356 82 153 2.0 3.0 0.00 0.00 0.00 82 1003.0
20260506000854 83 143 6.0 8.0 0.00 0.00 0.00 81 1002.8
20260506000354 83 181 4.0 6.0 0.00 0.00 0.00 81 1002.8
20260505235848 83 197 2.0 2.0 0.00 0.00 0.00 80 1003.0
20260505235346 83 165 2.0 3.0 0.00 0.00 0.00 80 1003.0
20260505234842 83 168 3.0 4.0 0.00 0.00 0.00 80 1002.9
20260505234340 83 190 2.0 2.0 0.00 0.00 0.00 80 1003.0
20260505233837 83 206 2.0 3.0 0.00 0.00 0.00 79 1003.0
20260505233335 84 200 1.0 1.0 0.00 0.00 0.00 79 1003.0
20260505232832 84 174 4.0 6.0 0.00 0.00 0.00 78 1002.9
20260505232330 85 149 4.0 7.0 0.00 0.00 0.00 77 1002.8
20260505231826 85 213 5.0 7.0 0.00 0.00 0.00 76 1002.8
20260505231324 85 183 3.0 4.0 0.00 0.00 0.00 76 1003.0
20260505230822 84 216 4.0 4.0 0.00 0.00 0.00 76 1002.7
20260505230319 84 214 5.0 6.0 0.00 0.00 0.00 76 1002.8
20260505225815 84 174 4.0 4.0 0.00 0.00 0.00 75 1002.7
20260505225313 84 190 2.0 3.0 0.00 0.00 0.00 77 1002.7
20260505224808 85 197 4.0 4.0 0.00 0.00 0.00 76 1002.8
20260505224306 85 152 2.0 3.0 0.00 0.00 0.00 76 1003.1
20260505223803 85 193 5.0 6.0 0.00 0.00 0.00 76 1002.9
20260505223300 85 225 4.0 6.0 0.00 0.00 0.00 76 1002.8
20260505222755 84 199 4.0 4.0 0.00 0.00 0.00 76 1002.8
20260505222251 84 190 4.0 6.0 0.00 0.00 0.00 76 1002.7
20260505221749 84 215 6.0 9.0 0.00 0.00 0.00 76 1002.9
20260505221245 84 179 4.0 6.0 0.00 0.00 0.00 76 1003.0
20260505220742 85 233 5.0 6.0 0.00 0.00 0.00 76 1003.0
20260505220239 85 246 4.0 4.0 0.00 0.00 0.00 75 1003.2
20260505215738 85 217 6.0 8.0 0.00 0.00 0.00 75 1003.2
20260505215235 85 233 7.0 9.0 0.00 0.00 0.00 74 1003.2
20260505214733 84 236 4.0 6.0 0.00 0.00 0.00 76 1003.2
20260505214230 84 249 5.0 6.0 0.00 0.00 0.00 75 1003.0
20260505213727 85 202 9.0 10.0 0.00 0.00 0.00 74 1003.4
20260505213224 85 208 4.0 6.0 0.00 0.00 0.00 75 1003.3
20260505212720 84 182 5.0 7.0 0.00 0.00 0.00 75 1003.4
20260505212218 84 221 4.0 4.0 0.00 0.00 0.00 76 1003.5
20260505211715 84 194 6.0 8.0 0.00 0.00 0.00 75 1003.6
20260505211212 84 198 6.0 7.0 0.00 0.00 0.00 76 1003.5
20260505210708 84 255 4.0 4.0 0.00 0.00 0.00 76 1003.5
20260505210205 84 197 8.0 9.0 0.00 0.00 0.00 76 1003.9
20260505205703 84 248 9.0 11.0 0.00 0.00 0.00 75 1004.0
20260505205201 84 238 6.0 6.0 0.00 0.00 0.00 77 1004.3
20260505204657 84 109 5.0 8.0 0.00 0.00 0.00 77 1004.1
20260505204155 84 249 3.0 4.0 0.00 0.00 0.00 78 1004.2
20260505203652 83 204 2.0 2.0 0.00 0.00 0.00 79 1004.2
20260505203148 83 147 6.0 9.0 0.00 0.00 0.00 79 1004.4
20260505202644 83 228 8.0 10.0 0.00 0.00 0.00 78 1004.5
20260505202140 84 345 2.0 2.0 0.00 0.00 0.00 80 1004.3
20260505201637 83 152 3.0 6.0 0.00 0.00 0.00 78 1004.6
20260505201135 84 224 8.0 10.0 0.00 0.00 0.00 77 1004.4
20260505200633 83 262 6.0 8.0 0.00 0.00 0.00 79 1004.4
20260505200130 82 203 5.0 7.0 0.00 0.00 0.00 80 1004.8
20260505195626 82 232 6.0 10.0 0.00 0.00 0.00 80 1004.7
20260505195123 82 211 6.0 7.0 0.00 0.00 0.00 80 1004.8
20260505194620 82 220 6.0 8.0 0.00 0.00 0.00 82 1004.9
20260505194116 82 195 5.0 7.0 0.00 0.00 0.00 81 1004.9
20260505193613 82 197 4.0 4.0 0.00 0.00 0.00 81 1005.0
20260505193110 81 198 3.0 4.0 0.00 0.00 0.00 82 1005.3
20260505192609 81 190 6.0 9.0 0.00 0.00 0.00 82 1005.3
20260505192106 81 227 4.0 4.0 0.00 0.00 0.00 82 1005.3
20260505191604 81 235 4.0 7.0 0.00 0.00 0.00 83 1005.2
20260505191102 81 195 6.0 8.0 0.00 0.00 0.00 82 1005.7
20260505190556 80 200 4.0 6.0 0.00 0.00 0.00 84 1005.6
20260505190052 80 220 5.0 6.0 0.00 0.00 0.00 84 1005.7
20260505185549 80 176 4.0 6.0 0.00 0.00 0.00 85 1005.7
20260505185045 80 159 4.0 6.0 0.00 0.00 0.00 85 1005.6
20260505184542 80 201 6.0 8.0 0.00 0.00 0.00 83 1005.9
20260505184039 80 185 4.0 4.0 0.00 0.00 0.00 84 1005.9
20260505183536 80 232 7.0 8.0 0.00 0.00 0.00 84 1006.2
20260505183033 80 253 4.0 4.0 0.00 0.00 0.00 85 1006.2
20260505182529 79 265 7.0 9.0 0.00 0.00 0.00 84 1005.9
20260505182026 79 204 5.0 6.0 0.00 0.00 0.00 84 1006.0
20260505181523 79 211 7.0 10.0 0.00 0.00 0.00 85 1006.1
20260505181020 78 209 4.0 6.0 0.00 0.00 0.00 86 1006.1
20260505180510 78 182 4.0 6.0 0.00 0.00 0.00 86 1006.0
20260505180009 78 208 6.0 11.0 0.00 0.00 0.00 87 1006.0
20260505175503 79 218 8.0 9.0 0.00 0.00 0.00 86 1006.2
20260505175000 78 206 4.0 4.0 0.00 0.00 0.00 87 1006.0
20260505174457 77 268 3.0 4.0 0.00 0.00 0.00 88 1006.2
20260505173953 77 227 4.0 6.0 0.00 0.00 0.00 88 1006.3
20260505173450 77 214 5.0 6.0 0.00 0.00 0.00 89 1006.3
20260505172947 76 200 4.0 6.0 0.00 0.00 0.00 90 1006.3
20260505172445 76 163 6.0 8.0 0.00 0.00 0.00 91 1006.3
20260505171944 76 210 4.0 4.0 0.00 0.00 0.00 90 1006.4
20260505171441 76 213 5.0 7.0 0.00 0.00 0.00 90 1006.4
20260505170938 76 213 4.0 6.0 0.00 0.00 0.00 91 1006.4
20260505170434 76 254 4.0 4.0 0.00 0.00 0.00 91 1006.6
20260505165924 75 230 2.0 3.0 0.00 0.00 0.00 91 1006.6
20260505165420 76 237 3.0 4.0 0.00 0.00 0.00 91 1006.4
20260505164915 76 224 8.0 10.0 0.00 0.00 0.00 90 1006.6
20260505164407 76 193 5.0 7.0 0.00 0.00 0.00 91 1006.4
20260505163905 75 256 5.0 6.0 0.00 0.00 0.00 91 1006.3
20260505163404 75 212 4.0 6.0 0.00 0.00 0.00 92 1006.3
20260505162902 75 213 5.0 7.0 0.00 0.00 0.00 92 1006.3
20260505162357 75 202 6.0 7.0 0.00 0.00 0.00 92 1006.5
20260505161855 75 259 6.0 7.0 0.00 0.00 0.00 93 1006.5
20260505161351 74 244 7.0 9.0 0.00 0.00 0.00 95 1006.6
20260505160848 74 197 6.0 10.0 0.00 0.00 0.00 97 1006.4
20260505160347 73 227 4.0 4.0 0.00 0.00 0.00 98 1006.8
20260505153326 72 253 6.0 7.0 0.00 0.00 0.00 99 1006.5
20260505152823 72 229 3.0 3.0 0.00 0.00 0.00 99 1006.5
20260505152320 72 246 3.0 3.0 0.00 0.00 0.00 99 1006.5
20260505151819 72 196 2.0 2.0 0.00 0.00 0.00 99 1006.4
20260505151316 72 187 4.0 6.0 0.00 0.00 0.00 99 1006.3
20260505150813 72 198 5.0 6.0 0.00 0.00 0.00 99 1006.5
20260505150310 72 203 3.0 3.0 0.00 0.00 0.00 99 1006.3
20260505140235 71 237 5.0 6.0 0.00 0.00 0.00 98 1006.1
20260505130159 70 232 5.0 8.0 0.00 0.00 0.00 99 1005.6
20260505124649 70 214 5.0 7.0 0.00 0.00 0.00 99 1005.6
20260505124145 70 220 5.0 6.0 0.00 0.00 0.00 99 1005.6
20260505123641 70 192 4.0 6.0 0.00 0.00 0.00 99 1005.3
20260505123138 70 231 4.0 7.0 0.00 0.00 0.00 99 1005.3
20260505122634 70 213 2.0 3.0 0.00 0.00 0.00 99 1005.3
20260505122132 70 201 3.0 4.0 0.00 0.00 0.00 99 1005.4
20260505121623 70 230 4.0 6.0 0.00 0.00 0.00 99 1004.9
20260505121120 70 228 4.0 6.0 0.00 0.00 0.00 99 1005.2
20260505120615 70 215 3.0 3.0 0.00 0.00 0.00 99 1005.1
20260505120111 70 211 4.0 4.0 0.00 0.00 0.00 99 1005.2
20260505115606 70 167 3.0 3.0 0.00 0.00 0.00 99 1005.2
20260505115104 70 221 4.0 6.0 0.00 0.00 0.00 99 1005.2
20260505114600 70 203 6.0 8.0 0.00 0.00 0.00 99 1005.0
20260505114057 70 163 3.0 4.0 0.00 0.00 0.00 99 1005.0
20260505113554 70 199 3.0 3.0 0.00 0.00 0.00 99 1004.9
20260505113050 69 231 5.0 7.0 0.00 0.00 0.00 99 1005.0
20260505112546 69 199 4.0 6.0 0.00 0.00 0.00 99 1004.9
20260505112044 69 178 3.0 3.0 0.00 0.00 0.00 98 1004.9
20260505111538 69 226 5.0 7.0 0.00 0.00 0.00 98 1004.9
20260505111035 69 180 6.0 8.0 0.00 0.00 0.00 98 1005.0
20260505110531 69 154 2.0 3.0 0.00 0.00 0.00 98 1005.1
20260505102004 69 230 4.0 8.0 0.00 0.00 0.00 98 1005.3
20260505101503 69 198 3.0 4.0 0.00 0.00 0.00 98 1005.1
20260505100958 69 235 6.0 8.0 0.00 0.00 0.00 98 1004.9
20260505100455 69 206 4.0 6.0 0.00 0.00 0.00 98 1005.3
20260505095951 69 221 6.0 8.0 0.00 0.00 0.00 98 1005.4
20260505095448 69 229 4.0 4.0 0.00 0.00 0.00 98 1005.1
20260505094944 69 222 8.0 9.0 0.00 0.00 0.00 98 1005.0
20260505094441 69 221 8.0 9.0 0.00 0.00 0.00 98 1005.0
20260505093937 69 202 7.0 8.0 0.00 0.00 0.00 98 1005.2
20260505093434 69 192 3.0 4.0 0.00 0.00 0.00 98 1005.3
20260505092931 69 228 10.0 11.0 0.00 0.00 0.00 98 1005.6
20260505092429 69 249 6.0 7.0 0.00 0.00 0.00 97 1005.4
20260505091926 69 221 7.0 8.0 0.00 0.00 0.00 97 1005.4
20260505091424 69 205 9.0 13.0 0.00 0.00 0.00 97 1005.2
20260505090921 69 214 5.0 6.0 0.00 0.00 0.00 97 1005.4
20260505090420 69 231 8.0 10.0 0.00 0.00 0.00 97 1005.3
20260505085917 69 228 8.0 10.0 0.00 0.00 0.00 97 1005.4
20260505085415 69 169 5.0 7.0 0.00 0.00 0.00 97 1005.9
20260505084913 69 223 7.0 9.0 0.00 0.00 0.00 98 1005.7
20260505084410 69 156 5.0 8.0 0.00 0.00 0.00 98 1005.7
20260505083909 69 212 6.0 8.0 0.00 0.00 0.00 97 1005.6
20260505083406 69 220 6.0 7.0 0.00 0.00 0.00 97 1005.7
20260505082901 69 253 5.0 6.0 0.00 0.00 0.00 97 1005.7
20260505082357 69 248 6.0 8.0 0.00 0.00 0.00 97 1005.8
20260505081854 69 219 7.0 8.0 0.00 0.00 0.00 97 1005.6
20260505081351 69 209 4.0 4.0 0.00 0.00 0.00 97 1006.0
20260505080848 69 220 7.0 8.0 0.00 0.00 0.00 97 1005.9
20260505080344 69 240 7.0 9.0 0.00 0.00 0.00 97 1006.1
20260505075840 69 208 4.0 6.0 0.00 0.00 0.00 97 1006.1
20260505075337 69 227 6.0 9.0 0.00 0.00 0.00 97 1006.2
20260505074834 69 215 4.0 4.0 0.00 0.00 0.00 97 1006.2
20260505074331 69 217 7.0 8.0 0.00 0.00 0.00 97 1006.1
20260505073828 69 200 3.0 4.0 0.00 0.00 0.00 97 1006.2
20260505073326 69 242 7.0 8.0 0.00 0.00 0.00 97 1006.3
20260505072823 69 203 5.0 8.0 0.00 0.00 0.00 97 1006.5
20260505072319 69 217 6.0 7.0 0.00 0.00 0.00 96 1006.5
20260505071815 69 225 7.0 9.0 0.00 0.00 0.00 96 1006.6
20260505071312 69 180 6.0 8.0 0.00 0.00 0.00 96 1006.7
20260505070810 69 233 6.0 8.0 0.00 0.00 0.00 96 1006.7
20260505070306 69 136 2.0 3.0 0.00 0.00 0.00 96 1007.1
20260505065801 69 233 4.0 6.0 0.00 0.00 0.00 96 1006.8
20260505065258 69 214 5.0 6.0 0.00 0.00 0.00 96 1006.9
20260505064755 69 202 8.0 10.0 0.00 0.00 0.00 96 1006.9
20260505064252 69 205 6.0 9.0 0.00 0.00 0.00 95 1007.0
20260505063750 69 184 4.0 6.0 0.00 0.00 0.00 95 1007.2
20260505063246 69 211 3.0 3.0 0.00 0.00 0.00 95 1007.1
20260505062743 69 229 5.0 8.0 0.00 0.00 0.00 95 1007.2
20260505062240 69 233 6.0 10.0 0.00 0.00 0.00 95 1007.0
20260505061737 69 202 5.0 6.0 0.00 0.00 0.00 95 1007.1
20260505061235 69 228 5.0 6.0 0.00 0.00 0.00 95 1007.0
20260505060732 69 198 7.0 9.0 0.00 0.00 0.00 95 1007.2
20260505060229 69 196 5.0 6.0 0.00 0.00 0.00 95 1006.9
20260505055724 69 193 3.0 4.0 0.00 0.00 0.00 95 1007.1